ARG2550 SVMC-SKRG

Flight info

Callsign ARG2550
Flight time 1h 10m
Altitude 24000
Route ASIBA1 BOBAT W1 STB A567 CUC G431 EJA W26 DIPRA DIPRA3B
Aircraft B737/M-SDE2E3FGHIRWXY/LB1

Departure

Time 2026-04-28 00:00
Airport La Chinita International Airport (SVMC)

Arrival

Time 2026-04-28 01:11
Airport Jose Maria Córdova International Airport (SKRG)
Time Latitude Longitude Altitude Speed Heading
2026-04-27 23:49 10.55705 -71.72436 229 ft 0 kts 129°
2026-04-27 23:53 10.55712 -71.72445 229 ft 4 kts 126°
2026-04-27 23:53 10.55727 -71.72468 229 ft 4 kts 123°
2026-04-27 23:53 10.55743 -71.72489 230 ft 4 kts 134°
2026-04-27 23:53 10.55763 -71.72506 228 ft 2 kts 142°
2026-04-27 23:54 10.55768 -71.72510 228 ft 0 kts 142°
2026-04-27 23:58 10.55741 -71.72513 228 ft 11 kts 194°
2026-04-27 23:58 10.55674 -71.72610 228 ft 25 kts 281°
2026-04-27 23:58 10.55121 -71.72984 219 ft 52 kts 203°
2026-04-27 23:58 10.54830 -71.73118 216 ft 37 kts 208°
2026-04-27 23:59 10.54643 -71.73239 221 ft 29 kts 222°
2026-04-27 23:59 10.54592 -71.73382 223 ft 18 kts 307°
2026-04-27 23:59 10.54644 -71.73394 223 ft 0 kts 21°
2026-04-27 23:59 10.54667 -71.73385 225 ft 21 kts 22°
2026-04-28 00:00 10.55042 -71.73224 226 ft 94 kts 23°
2026-04-28 00:00 10.55840 -71.72884 236 ft 152 kts 23°
2026-04-28 00:00 10.56914 -71.72420 616 ft 170 kts 24°
2026-04-28 00:00 10.57969 -71.71950 1273 ft 163 kts 24°
2026-04-28 00:01 10.59003 -71.71495 1339 ft 165 kts 23°
2026-04-28 00:01 10.60196 -71.70971 1616 ft 202 kts 24°
2026-04-28 00:01 10.61395 -71.70439 3364 ft 176 kts 25°
2026-04-28 00:01 10.62544 -71.69902 4551 ft 196 kts 26°
2026-04-28 00:02 10.63937 -71.69250 4934 ft 247 kts 22°
2026-04-28 00:02 10.65762 -71.69132 5640 ft 276 kts 343°
2026-04-28 00:02 10.67387 -71.70168 7104 ft 281 kts 315°
2026-04-28 00:02 10.68423 -71.71859 8344 ft 293 kts 290°
2026-04-28 00:03 10.68863 -71.73907 9503 ft 301 kts 288°
2026-04-28 00:03 10.69843 -71.75795 10534 ft 310 kts 311°
2026-04-28 00:03 10.71559 -71.77259 10954 ft 340 kts 332°
2026-04-28 00:03 10.73856 -71.77929 11267 ft 349 kts 358°
2026-04-28 00:04 10.76268 -71.77466 11742 ft 358 kts 26°
2026-04-28 00:04 10.79370 -71.73732 13313 ft 359 kts 77°
2026-04-28 00:04 10.79473 -71.71179 14059 ft 360 kts 101°
2026-04-28 00:05 10.78641 -71.68818 14765 ft 363 kts 119°
2026-04-28 00:05 10.77426 -71.66539 15479 ft 368 kts 119°
2026-04-28 00:05 10.76202 -71.64229 16139 ft 373 kts 119°
2026-04-28 00:05 10.75382 -71.62680 16582 ft 376 kts 119°
2026-04-28 00:06 10.73582 -71.59599 17452 ft 381 kts 131°
2026-04-28 00:06 10.71577 -71.57845 18103 ft 382 kts 148°
2026-04-28 00:06 10.69311 -71.56423 18752 ft 385 kts 150°
2026-04-28 00:06 10.66792 -71.55485 19268 ft 390 kts 173°
2026-04-28 00:07 10.64090 -71.55674 19875 ft 393 kts 196°
2026-04-28 00:07 10.61512 -71.56481 20500 ft 394 kts 191°
2026-04-28 00:07 10.58761 -71.56612 20994 ft 399 kts 175°
2026-04-28 00:07 10.55989 -71.56325 21511 ft 402 kts 177°
2026-04-28 00:08 10.53215 -71.56673 21962 ft 407 kts 199°
2026-04-28 00:08 10.50763 -71.58105 22446 ft 411 kts 219°
2026-04-28 00:08 10.48698 -71.60126 22947 ft 414 kts 225°
2026-04-28 00:08 10.46730 -71.62281 23355 ft 418 kts 226°
2026-04-28 00:09 10.44718 -71.64437 23767 ft 421 kts 224°
2026-04-28 00:09 10.42617 -71.66533 23911 ft 426 kts 222°
2026-04-28 00:09 10.40387 -71.68557 23928 ft 434 kts 219°
2026-04-28 00:09 10.38006 -71.70422 23970 ft 439 kts 212°
2026-04-28 00:10 10.35326 -71.71948 23982 ft 444 kts 204°
2026-04-28 00:10 10.32427 -71.73064 23985 ft 443 kts 196°
2026-04-28 00:10 10.29442 -71.73853 23983 ft 441 kts 192°
2026-04-28 00:10 10.26468 -71.74445 23984 ft 440 kts 189°
2026-04-28 00:11 10.23442 -71.74962 23982 ft 441 kts 189°
2026-04-28 00:11 10.21393 -71.75299 23979 ft 441 kts 189°
2026-04-28 00:11 10.17376 -71.75968 23979 ft 441 kts 189°
2026-04-28 00:11 10.14346 -71.76491 23982 ft 441 kts 189°
2026-04-28 00:12 10.11354 -71.77019 23982 ft 441 kts 189°
2026-04-28 00:12 10.08335 -71.77560 23983 ft 441 kts 189°
2026-04-28 00:12 10.05307 -71.78105 23980 ft 441 kts 189°
2026-04-28 00:12 10.02270 -71.78653 23978 ft 441 kts 189°
2026-04-28 00:13 9.99244 -71.79198 23974 ft 441 kts 189°
2026-04-28 00:13 9.96220 -71.79741 23972 ft 442 kts 189°
2026-04-28 00:13 9.93196 -71.80285 23971 ft 441 kts 189°
2026-04-28 00:13 9.90170 -71.80810 23972 ft 441 kts 188°
2026-04-28 00:14 9.87160 -71.81266 23974 ft 441 kts 187°
2026-04-28 00:14 9.84124 -71.81693 23978 ft 441 kts 187°
2026-04-28 00:14 9.81078 -71.82112 23982 ft 441 kts 187°
2026-04-28 00:14 9.78038 -71.82532 23982 ft 441 kts 187°
2026-04-28 00:15 9.74994 -71.82958 23982 ft 441 kts 187°
2026-04-28 00:15 9.71951 -71.83390 23979 ft 441 kts 187°
2026-04-28 00:15 9.68907 -71.83825 23976 ft 441 kts 187°
2026-04-28 00:15 9.65908 -71.84256 23972 ft 441 kts 187°
2026-04-28 00:16 9.62865 -71.84694 23973 ft 441 kts 187°
2026-04-28 00:16 9.59822 -71.85132 23971 ft 441 kts 187°
2026-04-28 00:16 9.56777 -71.85571 23971 ft 441 kts 187°
2026-04-28 00:16 9.53733 -71.86009 23973 ft 441 kts 187°
2026-04-28 00:17 9.50696 -71.86446 23972 ft 441 kts 187°
2026-04-28 00:17 9.47654 -71.86883 23972 ft 441 kts 187°
2026-04-28 00:17 9.44652 -71.87315 23972 ft 441 kts 187°
2026-04-28 00:17 9.41606 -71.87753 23973 ft 441 kts 187°
2026-04-28 00:18 9.39589 -71.88043 23975 ft 440 kts 187°
2026-04-28 00:18 9.36560 -71.88478 23971 ft 440 kts 187°
2026-04-28 00:18 9.33522 -71.88915 23971 ft 440 kts 187°
2026-04-28 00:18 9.30490 -71.89350 23973 ft 440 kts 187°
2026-04-28 00:19 9.27450 -71.89787 23972 ft 440 kts 187°
2026-04-28 00:19 9.24416 -71.90223 23972 ft 440 kts 187°
2026-04-28 00:19 9.21389 -71.90657 23974 ft 440 kts 187°
2026-04-28 00:19 9.18389 -71.91088 23973 ft 440 kts 187°
2026-04-28 00:20 9.15355 -71.91524 23971 ft 440 kts 187°
2026-04-28 00:20 9.12322 -71.91959 23973 ft 440 kts 187°
2026-04-28 00:20 9.09291 -71.92394 23966 ft 440 kts 187°
2026-04-28 00:20 9.06262 -71.92829 23963 ft 440 kts 187°
2026-04-28 00:21 9.03223 -71.93265 23965 ft 440 kts 187°
2026-04-28 00:21 9.00195 -71.93748 23959 ft 440 kts 192°
2026-04-28 00:21 8.97243 -71.94610 23966 ft 441 kts 199°
2026-04-28 00:21 8.94489 -71.95893 23966 ft 441 kts 207°
2026-04-28 00:22 8.91802 -71.97402 23970 ft 441 kts 208°
2026-04-28 00:22 8.89123 -71.98939 23951 ft 442 kts 208°
2026-04-28 00:22 8.86473 -72.00464 23957 ft 441 kts 208°
2026-04-28 00:22 8.83766 -72.02011 23967 ft 441 kts 208°
2026-04-28 00:23 8.81124 -72.03509 23961 ft 441 kts 208°
2026-04-28 00:23 8.78438 -72.05024 23958 ft 441 kts 208°
2026-04-28 00:23 8.75757 -72.06531 23981 ft 439 kts 208°
2026-04-28 00:23 8.73084 -72.08030 23975 ft 439 kts 208°
2026-04-28 00:24 8.70413 -72.09526 23955 ft 438 kts 208°
2026-04-28 00:24 8.67740 -72.11023 23966 ft 438 kts 208°
2026-04-28 00:24 8.65067 -72.12519 23960 ft 440 kts 208°
2026-04-28 00:24 8.61515 -72.14508 23969 ft 441 kts 208°
2026-04-28 00:25 8.59732 -72.15506 23969 ft 442 kts 208°
2026-04-28 00:25 8.57041 -72.17012 23967 ft 442 kts 208°
2026-04-28 00:25 8.54347 -72.18521 23964 ft 442 kts 208°
2026-04-28 00:25 8.51657 -72.20027 23958 ft 442 kts 208°
2026-04-28 00:26 8.48965 -72.21535 23966 ft 441 kts 208°
2026-04-28 00:26 8.46266 -72.23045 23963 ft 441 kts 208°
2026-04-28 00:26 8.43586 -72.24542 23955 ft 440 kts 208°
2026-04-28 00:26 8.40934 -72.26022 23966 ft 440 kts 208°
2026-04-28 00:27 8.38255 -72.27523 23959 ft 440 kts 208°
2026-04-28 00:27 8.35579 -72.29022 23965 ft 440 kts 208°
2026-04-28 00:27 8.32894 -72.30525 23958 ft 440 kts 208°
2026-04-28 00:27 8.30217 -72.32023 23965 ft 440 kts 208°
2026-04-28 00:28 8.27539 -72.33520 23964 ft 440 kts 208°
2026-04-28 00:28 8.24860 -72.35018 23966 ft 440 kts 208°
2026-04-28 00:28 8.22178 -72.36517 23965 ft 440 kts 208°
2026-04-28 00:28 8.19491 -72.38008 23962 ft 440 kts 207°
2026-04-28 00:29 8.16813 -72.39411 23959 ft 440 kts 206°
2026-04-28 00:29 8.14077 -72.40797 23967 ft 440 kts 205°
2026-04-28 00:29 8.11339 -72.42176 23955 ft 440 kts 205°
2026-04-28 00:29 8.08590 -72.43567 23967 ft 440 kts 205°
2026-04-28 00:30 8.05852 -72.44962 23964 ft 441 kts 206°
2026-04-28 00:30 8.03123 -72.46361 23958 ft 440 kts 206°
2026-04-28 00:30 8.00385 -72.47766 23948 ft 440 kts 206°
2026-04-28 00:30 7.97656 -72.49166 23966 ft 439 kts 206°
2026-04-28 00:31 7.95064 -72.50740 23958 ft 441 kts 215°
2026-04-28 00:31 7.92704 -72.52724 23969 ft 442 kts 222°
2026-04-28 00:31 7.90636 -72.55040 23953 ft 445 kts 231°
2026-04-28 00:31 7.88839 -72.57576 23971 ft 445 kts 233°
2026-04-28 00:32 7.87079 -72.60151 23954 ft 446 kts 234°
2026-04-28 00:32 7.85345 -72.62701 23953 ft 446 kts 233°
2026-04-28 00:32 7.83577 -72.65286 23974 ft 446 kts 233°
2026-04-28 00:32 7.81806 -72.67853 23974 ft 446 kts 233°
2026-04-28 00:33 7.80029 -72.70412 23978 ft 446 kts 233°
2026-04-28 00:33 7.78240 -72.72975 23980 ft 446 kts 233°
2026-04-28 00:33 7.76447 -72.75540 23979 ft 446 kts 233°
2026-04-28 00:33 7.74658 -72.78098 23979 ft 446 kts 233°
2026-04-28 00:34 7.72888 -72.80630 23982 ft 447 kts 233°
2026-04-28 00:34 7.71097 -72.83193 23978 ft 448 kts 233°
2026-04-28 00:34 7.69300 -72.85764 23976 ft 448 kts 233°
2026-04-28 00:34 7.67503 -72.88334 23975 ft 448 kts 233°
2026-04-28 00:35 7.65708 -72.90902 23984 ft 448 kts 233°
2026-04-28 00:35 7.63913 -72.93471 23979 ft 448 kts 233°
2026-04-28 00:35 7.62117 -72.96042 23990 ft 447 kts 233°
2026-04-28 00:35 7.60341 -72.98585 23993 ft 447 kts 233°
2026-04-28 00:36 7.58549 -73.01151 23995 ft 447 kts 233°
2026-04-28 00:36 7.56756 -73.03718 23992 ft 447 kts 233°
2026-04-28 00:36 7.54966 -73.06280 24008 ft 447 kts 233°
2026-04-28 00:36 7.53171 -73.08847 24008 ft 447 kts 233°
2026-04-28 00:37 7.51368 -73.11426 24007 ft 448 kts 233°
2026-04-28 00:37 7.49581 -73.13981 24008 ft 448 kts 233°
2026-04-28 00:37 7.47803 -73.16524 24009 ft 447 kts 233°
2026-04-28 00:37 7.45999 -73.19103 24014 ft 447 kts 233°
2026-04-28 00:38 7.44226 -73.21640 24015 ft 447 kts 233°
2026-04-28 00:38 7.42423 -73.24220 24020 ft 448 kts 233°
2026-04-28 00:38 7.40632 -73.26779 24006 ft 448 kts 233°
2026-04-28 00:38 7.38846 -73.29331 24008 ft 448 kts 233°
2026-04-28 00:39 7.37051 -73.31900 24001 ft 448 kts 233°
2026-04-28 00:39 7.35245 -73.34489 23996 ft 448 kts 233°
2026-04-28 00:39 7.33451 -73.37062 23999 ft 448 kts 233°
2026-04-28 00:39 7.31658 -73.39629 23998 ft 448 kts 233°
2026-04-28 00:40 7.29862 -73.42194 23998 ft 448 kts 233°
2026-04-28 00:40 7.28090 -73.44720 23992 ft 447 kts 233°
2026-04-28 00:40 7.26293 -73.47279 23986 ft 447 kts 233°
2026-04-28 00:40 7.24498 -73.49836 23981 ft 448 kts 233°
2026-04-28 00:41 7.22694 -73.52405 23971 ft 448 kts 233°
2026-04-28 00:41 7.20893 -73.54972 23947 ft 448 kts 233°
2026-04-28 00:41 7.19089 -73.57541 23941 ft 449 kts 233°
2026-04-28 00:41 7.17289 -73.60106 23928 ft 449 kts 233°
2026-04-28 00:42 7.15488 -73.62672 23915 ft 448 kts 233°
2026-04-28 00:42 7.13687 -73.65238 23911 ft 448 kts 233°
2026-04-28 00:42 7.11889 -73.67799 23896 ft 448 kts 233°
2026-04-28 00:42 7.10107 -73.70337 23882 ft 448 kts 233°
2026-04-28 00:43 7.08302 -73.72907 23874 ft 448 kts 233°
2026-04-28 00:43 7.06502 -73.75471 23867 ft 448 kts 233°
2026-04-28 00:43 7.04699 -73.78036 23861 ft 448 kts 233°
2026-04-28 00:43 7.02910 -73.80604 23861 ft 448 kts 234°
2026-04-28 00:44 7.01288 -73.83285 23867 ft 448 kts 238°
2026-04-28 00:44 6.99750 -73.86018 23863 ft 449 kts 239°
2026-04-28 00:44 6.98235 -73.88774 23860 ft 449 kts 239°
2026-04-28 00:44 6.96748 -73.91490 23862 ft 449 kts 239°
2026-04-28 00:45 6.95214 -73.94278 23862 ft 450 kts 239°
2026-04-28 00:45 6.93710 -73.96992 23861 ft 450 kts 239°
2026-04-28 00:45 6.92178 -73.99740 23861 ft 450 kts 239°
2026-04-28 00:45 6.90643 -74.02485 23866 ft 450 kts 239°
2026-04-28 00:46 6.89108 -74.05226 23871 ft 450 kts 239°
2026-04-28 00:46 6.87569 -74.07971 23872 ft 450 kts 239°
2026-04-28 00:46 6.86032 -74.10711 23880 ft 449 kts 239°
2026-04-28 00:46 6.84493 -74.13455 23887 ft 449 kts 239°
2026-04-28 00:47 6.82956 -74.16197 23895 ft 449 kts 239°
2026-04-28 00:47 6.81416 -74.18941 23903 ft 449 kts 239°
2026-04-28 00:47 6.79899 -74.21649 23909 ft 449 kts 239°
2026-04-28 00:47 6.78361 -74.24392 23924 ft 449 kts 239°
2026-04-28 00:48 6.76826 -74.27128 23930 ft 449 kts 239°
2026-04-28 00:48 6.75288 -74.29866 23939 ft 449 kts 239°
2026-04-28 00:48 6.73751 -74.32603 23952 ft 449 kts 239°
2026-04-28 00:48 6.72212 -74.35344 23968 ft 449 kts 239°
2026-04-28 00:49 6.70676 -74.38081 23974 ft 449 kts 239°
2026-04-28 00:49 6.69140 -74.40817 23986 ft 450 kts 239°
2026-04-28 00:49 6.67618 -74.43527 23997 ft 450 kts 239°
2026-04-28 00:49 6.66077 -74.46272 24016 ft 449 kts 239°
2026-04-28 00:50 6.64540 -74.49008 24026 ft 449 kts 239°
2026-04-28 00:50 6.63004 -74.51742 24043 ft 449 kts 239°
2026-04-28 00:50 6.61477 -74.54477 24052 ft 449 kts 240°
2026-04-28 00:50 6.60214 -74.57366 24083 ft 451 kts 248°
2026-04-28 00:51 6.59162 -74.60343 24088 ft 451 kts 250°
2026-04-28 00:51 6.58174 -74.63341 24096 ft 452 kts 250°
2026-04-28 00:51 6.57191 -74.66344 24107 ft 452 kts 250°
2026-04-28 00:51 6.56191 -74.69344 24124 ft 452 kts 250°
2026-04-28 00:52 6.55187 -74.72295 24128 ft 452 kts 249°
2026-04-28 00:52 6.54154 -74.75276 24141 ft 452 kts 249°
2026-04-28 00:52 6.53109 -74.78266 24156 ft 452 kts 249°
2026-04-28 00:52 6.52062 -74.81245 24167 ft 452 kts 249°
2026-04-28 00:53 6.51013 -74.84227 24186 ft 451 kts 249°
2026-04-28 00:53 6.49968 -74.87202 24181 ft 452 kts 249°
2026-04-28 00:53 6.48921 -74.90184 24189 ft 451 kts 249°
2026-04-28 00:53 6.47877 -74.93158 24185 ft 451 kts 249°
2026-04-28 00:54 6.46829 -74.96140 24177 ft 451 kts 249°
2026-04-28 00:54 6.45782 -74.99117 24175 ft 449 kts 249°
2026-04-28 00:54 6.44766 -75.02010 24192 ft 440 kts 249°
2026-04-28 00:54 6.43751 -75.04900 24202 ft 437 kts 249°
2026-04-28 00:55 6.42746 -75.07763 24083 ft 427 kts 249°
2026-04-28 00:55 6.41766 -75.10549 23226 ft 420 kts 249°
2026-04-28 00:55 6.40690 -75.13257 22091 ft 415 kts 239°
2026-04-28 00:55 6.38906 -75.15514 20871 ft 411 kts 220°
2026-04-28 00:56 6.36586 -75.17132 19809 ft 402 kts 205°
2026-04-28 00:56 6.33974 -75.18068 18767 ft 395 kts 195°
2026-04-28 00:56 6.31332 -75.18785 17712 ft 390 kts 194°
2026-04-28 00:56 6.28727 -75.19454 16682 ft 383 kts 193°
2026-04-28 00:57 6.26190 -75.20100 15626 ft 379 kts 194°
2026-04-28 00:57 6.23653 -75.20766 14587 ft 373 kts 194°
2026-04-28 00:57 6.21165 -75.21428 13553 ft 368 kts 194°
2026-04-28 00:57 6.18708 -75.22088 12563 ft 362 kts 195°
2026-04-28 00:58 6.16294 -75.22744 11545 ft 358 kts 195°
2026-04-28 00:58 6.13889 -75.23400 10580 ft 354 kts 195°
2026-04-28 00:58 6.11524 -75.24042 10156 ft 347 kts 195°
2026-04-28 00:58 6.09290 -75.24650 10272 ft 314 kts 195°
2026-04-28 00:59 6.07353 -75.25177 10831 ft 266 kts 195°
2026-04-28 00:59 6.05673 -75.25634 11196 ft 238 kts 195°
2026-04-28 00:59 6.04119 -75.26057 11462 ft 226 kts 195°
2026-04-28 00:59 6.02635 -75.26461 12117 ft 226 kts 195°
2026-04-28 01:00 6.01089 -75.26881 12763 ft 232 kts 195°
2026-04-28 01:00 5.99529 -75.27306 13023 ft 235 kts 194°
2026-04-28 01:00 5.97926 -75.27743 13012 ft 239 kts 194°
2026-04-28 01:00 5.96331 -75.28177 13005 ft 236 kts 194°
2026-04-28 01:01 5.94752 -75.28607 13020 ft 235 kts 195°
2026-04-28 01:01 5.93172 -75.29036 13023 ft 236 kts 194°
2026-04-28 01:01 5.91588 -75.29466 13014 ft 236 kts 194°
2026-04-28 01:01 5.90004 -75.29911 13002 ft 236 kts 200°
2026-04-28 01:02 5.88700 -75.30839 12990 ft 236 kts 232°
2026-04-28 01:02 5.88089 -75.32351 12990 ft 236 kts 265°
2026-04-28 01:02 5.88194 -75.33995 13000 ft 235 kts 279°
2026-04-28 01:02 5.88484 -75.35534 13016 ft 211 kts 281°
2026-04-28 01:03 5.88758 -75.36924 12950 ft 197 kts 281°
2026-04-28 01:03 5.89010 -75.38236 12809 ft 179 kts 281°
2026-04-28 01:03 5.89227 -75.39372 12547 ft 157 kts 281°
2026-04-28 01:03 5.89679 -75.40358 11977 ft 156 kts 307°
2026-04-28 01:04 5.90434 -75.41128 11556 ft 155 kts 323°
2026-04-28 01:04 5.91383 -75.41652 11253 ft 158 kts 341°
2026-04-28 01:04 5.92433 -75.41826 11157 ft 148 kts 356°
2026-04-28 01:04 5.93493 -75.41965 11003 ft 161 kts 353°
2026-04-28 01:05 5.94568 -75.42081 10884 ft 154 kts 356°
2026-04-28 01:05 5.95633 -75.42139 10701 ft 152 kts 359°
2026-04-28 01:05 5.96338 -75.42160 10558 ft 153 kts 359°
2026-04-28 01:05 5.97758 -75.42185 10300 ft 156 kts 359°
2026-04-28 01:06 5.98837 -75.42195 10089 ft 153 kts
2026-04-28 01:06 5.99540 -75.42203 9959 ft 150 kts 360°
2026-04-28 01:06 6.00578 -75.42208 9755 ft 148 kts
2026-04-28 01:06 6.01611 -75.42213 9561 ft 150 kts
2026-04-28 01:07 6.02651 -75.42222 9356 ft 149 kts
2026-04-28 01:07 6.03679 -75.42228 9163 ft 147 kts
2026-04-28 01:07 6.04697 -75.42235 8970 ft 146 kts
2026-04-28 01:07 6.05724 -75.42242 8779 ft 149 kts
2026-04-28 01:08 6.06772 -75.42249 8571 ft 152 kts
2026-04-28 01:08 6.07823 -75.42256 8380 ft 148 kts 359°
2026-04-28 01:08 6.08824 -75.42262 8173 ft 143 kts 359°
2026-04-28 01:08 6.09822 -75.42269 7995 ft 144 kts 359°
2026-04-28 01:09 6.10830 -75.42275 7799 ft 146 kts 359°
2026-04-28 01:09 6.11845 -75.42282 7605 ft 146 kts 359°
2026-04-28 01:09 6.12857 -75.42295 7390 ft 144 kts
2026-04-28 01:09 6.13861 -75.42288 7201 ft 145 kts 360°
2026-04-28 01:10 6.14874 -75.42303 7028 ft 147 kts 359°
2026-04-28 01:10 6.15881 -75.42310 7001 ft 140 kts 360°
2026-04-28 01:10 6.16781 -75.42314 7012 ft 111 kts 359°
2026-04-28 01:10 6.17383 -75.42321 7023 ft 62 kts 359°
2026-04-28 01:11 6.17575 -75.42404 7026 ft 15 kts 271°
2026-04-28 01:11 6.17530 -75.42495 7025 ft 15 kts 226°
2026-04-28 01:11 6.17456 -75.42562 7023 ft 14 kts 216°
2026-04-28 01:11 6.17373 -75.42609 7022 ft 13 kts 200°
2026-04-28 01:12 6.17283 -75.42620 7023 ft 13 kts 179°
2026-04-28 01:12 6.17195 -75.42619 7018 ft 13 kts 179°
2026-04-28 01:12 6.17110 -75.42619 7017 ft 10 kts 185°
2026-04-28 01:12 6.17060 -75.42644 7017 ft 8 kts 237°
2026-04-28 01:13 6.17059 -75.42682 7016 ft 3 kts 289°
2026-04-28 01:13 6.17066 -75.42700 7016 ft 0 kts 292°